| time (UTC) | temp F | wind direction | speed knots | gust knots | rain 1hr in | rain 24hr in | rain mn in | humidity % | barometer mb |
| 20260502194517 | 60 | 87 | 4.3 | 7.0 | 0.00 | 0.00 | 0.00 | 79 | 1018.6 |
| 20260502193612 | 60 | 71 | 1.7 | 5.2 | 0.00 | 0.00 | 0.00 | 79 | 1018.3 |
| 20260502192604 | 60 | 88 | 0.9 | 3.5 | 0.00 | 0.00 | 0.00 | 80 | 1018.5 |
| 20260502191623 | 60 | 81 | 4.3 | 7.8 | 0.00 | 0.00 | 0.00 | 80 | 1018.4 |
| 20260502190554 | 61 | 90 | 1.7 | 5.2 | 0.00 | 0.00 | 0.00 | 78 | 1018.3 |
| 20260502185547 | 61 | 116 | 1.7 | 6.1 | 0.00 | 0.00 | 0.00 | 77 | 1018.5 |
| 20260502184541 | 61 | 107 | 1.7 | 3.5 | 0.00 | 0.00 | 0.00 | 75 | 1018.2 |
| 20260502183534 | 61 | 111 | 1.7 | 3.5 | 0.00 | 0.00 | 0.00 | 74 | 1018.4 |
| 20260502182527 | 61 | 135 | 0.9 | 3.5 | 0.00 | 0.00 | 0.00 | 74 | 1018.5 |
| 20260502181522 | 61 | 124 | 1.7 | 5.2 | 0.00 | 0.00 | 0.00 | 71 | 1018.3 |
| 20260502180518 | 62 | 110 | 1.7 | 5.2 | 0.00 | 0.00 | 0.00 | 70 | 1018.2 |
| 20260502163525 | 63 | 107 | 1.7 | 3.5 | 0.00 | 0.00 | 0.00 | 67 | 1019.1 |
| 20260502162519 | 63 | 100 | 5.2 | 9.6 | 0.00 | 0.00 | 0.00 | 65 | 1018.9 |
| 20260502161613 | 63 | 116 | 2.6 | 7.8 | 0.00 | 0.00 | 0.00 | 64 | 1019.1 |
| 20260502160607 | 63 | 103 | 2.6 | 7.0 | 0.00 | 0.00 | 0.00 | 59 | 1019.3 |
| 20260502151541 | 65 | 109 | 1.7 | 5.2 | 0.00 | 0.00 | 0.00 | 60 | 1019.7 |
| 20260502150536 | 65 | 90 | 2.6 | 7.8 | 0.00 | 0.00 | 0.00 | 62 | 1019.7 |
| 20260502130524 | 66 | 130 | 2.6 | 7.0 | 0.00 | 0.00 | 0.00 | 55 | 1021.0 |
| 20260502123604 | 69 | 81 | 2.6 | 6.1 | 0.00 | 0.00 | 0.00 | 45 | 1020.9 |
| 20260502122557 | 68 | 103 | 3.5 | 9.6 | 0.00 | 0.00 | 0.00 | 43 | 1020.9 |
| 20260502121547 | 67 | 67 | 3.5 | 7.8 | 0.00 | 0.00 | 0.00 | 49 | 1021.0 |
| 20260502120543 | 67 | 107 | 1.7 | 5.2 | 0.00 | 0.00 | 0.00 | 50 | 1021.0 |
| 20260502115536 | 67 | 87 | 3.5 | 9.6 | 0.00 | 0.00 | 0.00 | 55 | 1021.0 |
| 20260502114530 | 66 | 88 | 2.6 | 7.0 | 0.00 | 0.00 | 0.00 | 56 | 1021.1 |
| 20260502113526 | 66 | 79 | 0.9 | 5.2 | 0.00 | 0.00 | 0.00 | 58 | 1021.3 |
| 20260502112518 | 64 | 32 | 5.2 | 7.8 | 0.00 | 0.00 | 0.00 | 62 | 1021.4 |
| 20260502111611 | 65 | 74 | 0.9 | 3.5 | 0.00 | 0.00 | 0.00 | 59 | 1021.4 |
| 20260502110606 | 63 | 75 | 3.5 | 6.1 | 0.00 | 0.00 | 0.00 | 62 | 1021.6 |
| 20260502105559 | 63 | 84 | 3.5 | 7.8 | 0.00 | 0.00 | 0.00 | 63 | 1021.5 |
| 20260502104554 | 63 | 98 | 2.6 | 7.0 | 0.00 | 0.00 | 0.00 | 62 | 1021.8 |
| 20260502103550 | 62 | 90 | 3.5 | 6.1 | 0.00 | 0.00 | 0.00 | 63 | 1021.9 |
| 20260502102545 | 63 | 68 | 1.7 | 5.2 | 0.00 | 0.00 | 0.00 | 63 | 1022.1 |
| 20260502101540 | 63 | 84 | 1.7 | 6.1 | 0.00 | 0.00 | 0.00 | 63 | 1022.2 |
| 20260502100533 | 63 | 68 | 1.7 | 3.5 | 0.00 | 0.00 | 0.00 | 63 | 1022.2 |
| 20260502090601 | 61 | 11 | 1.7 | 5.2 | 0.00 | 0.00 | 0.00 | 66 | 1022.4 |
| 20260502070551 | 60 | 52 | 3.5 | 6.1 | 0.00 | 0.00 | 0.00 | 76 | 1022.3 |
| 20260502065626 | 59 | 81 | 3.5 | 6.1 | 0.00 | 0.00 | 0.00 | 77 | 1022.5 |
| 20260502064539 | 59 | 54 | 4.3 | 7.8 | 0.00 | 0.00 | 0.00 | 77 | 1022.5 |
| 20260502063533 | 59 | 81 | 4.3 | 7.0 | 0.00 | 0.00 | 0.00 | 77 | 1022.3 |
| 20260502062548 | 59 | 86 | 5.2 | 7.8 | 0.00 | 0.00 | 0.00 | 78 | 1022.2 |
| 20260502061521 | 59 | 52 | 1.7 | 5.2 | 0.00 | 0.00 | 0.00 | 78 | 1022.0 |
| 20260502060515 | 59 | 77 | 3.5 | 6.1 | 0.00 | 0.00 | 0.00 | 79 | 1022.2 |
| 20260502055611 | 59 | 67 | 3.5 | 7.0 | 0.00 | 0.00 | 0.00 | 78 | 1022.1 |
| 20260502054604 | 59 | 74 | 3.5 | 6.1 | 0.00 | 0.00 | 0.00 | 79 | 1022.1 |
| 20260502053600 | 59 | 64 | 1.7 | 5.2 | 0.00 | 0.00 | 0.00 | 79 | 1022.1 |
| 20260502052554 | 59 | 87 | 3.5 | 6.1 | 0.00 | 0.00 | 0.00 | 79 | 1022.1 |
| 20260502051549 | 59 | 77 | 4.3 | 7.8 | 0.00 | 0.00 | 0.00 | 80 | 1021.9 |
| 20260502050543 | 59 | 84 | 2.6 | 6.1 | 0.00 | 0.00 | 0.00 | 81 | 1021.9 |
| 20260502045539 | 59 | 84 | 4.3 | 7.8 | 0.00 | 0.00 | 0.00 | 82 | 1021.9 |
| 20260502044534 | 59 | 72 | 2.6 | 7.0 | 0.00 | 0.00 | 0.00 | 82 | 1022.0 |
| 20260502043529 | 59 | 64 | 4.3 | 7.8 | 0.00 | 0.00 | 0.00 | 81 | 1022.0 |
| 20260502042526 | 59 | 78 | 2.6 | 6.1 | 0.00 | 0.00 | 0.00 | 81 | 1021.9 |
| 20260502041519 | 59 | 57 | 4.3 | 6.1 | 0.00 | 0.00 | 0.00 | 81 | 1021.8 |
| 20260502040635 | 59 | 88 | 4.3 | 7.0 | 0.00 | 0.00 | 0.00 | 81 | 1021.8 |
| 20260502035607 | 59 | 76 | 1.7 | 7.0 | 0.00 | 0.00 | 0.00 | 81 | 1021.9 |
| 20260502034604 | 59 | 87 | 2.6 | 5.2 | 0.00 | 0.00 | 0.00 | 81 | 1021.8 |
| 20260502033557 | 59 | 75 | 1.7 | 5.2 | 0.00 | 0.00 | 0.00 | 81 | 1021.9 |
| 20260502032550 | 59 | 90 | 1.7 | 3.5 | 0.00 | 0.00 | 0.00 | 82 | 1021.9 |
| 20260502031544 | 59 | 94 | 3.5 | 7.0 | 0.00 | 0.00 | 0.00 | 82 | 1021.9 |
| 20260502030538 | 59 | 63 | 4.3 | 6.1 | 0.00 | 0.00 | 0.00 | 82 | 1021.9 |
| 20260502025532 | 60 | 72 | 4.3 | 7.0 | 0.00 | 0.00 | 0.00 | 82 | 1021.9 |
| 20260502024527 | 60 | 96 | 4.3 | 9.6 | 0.00 | 0.00 | 0.00 | 82 | 1022.0 |
| 20260502023522 | 60 | 52 | 2.6 | 5.2 | 0.00 | 0.00 | 0.00 | 82 | 1022.0 |
| 20260502022517 | 59 | 83 | 4.3 | 7.0 | 0.00 | 0.00 | 0.00 | 82 | 1022.0 |
| 20260502021614 | 59 | 67 | 1.7 | 3.5 | 0.00 | 0.00 | 0.00 | 82 | 1022.0 |
| 20260502020628 | 59 | 75 | 3.5 | 6.1 | 0.00 | 0.00 | 0.00 | 83 | 1022.1 |
| 20260502015643 | 59 | 53 | 3.5 | 7.0 | 0.00 | 0.00 | 0.00 | 82 | 1022.3 |
| 20260502014556 | 59 | 41 | 2.6 | 6.1 | 0.00 | 0.00 | 0.00 | 81 | 1022.3 |
| 20260502013550 | 59 | 20 | 2.6 | 5.2 | 0.00 | 0.00 | 0.00 | 82 | 1022.3 |
| 20260502012543 | 59 | 61 | 4.3 | 9.6 | 0.00 | 0.00 | 0.00 | 81 | 1022.1 |
| 20260502011537 | 59 | 45 | 3.5 | 7.0 | 0.00 | 0.00 | 0.00 | 80 | 1022.4 |
| 20260502010531 | 60 | 77 | 2.6 | 6.1 | 0.00 | 0.00 | 0.00 | 74 | 1022.5 |
| 20260502005525 | 60 | 79 | 1.7 | 5.2 | 0.00 | 0.00 | 0.00 | 71 | 1022.6 |
| 20260502004518 | 60 | 46 | 1.7 | 3.5 | 0.00 | 0.00 | 0.00 | 70 | 1022.7 |
| 20260502003614 | 60 | 52 | 2.6 | 5.2 | 0.00 | 0.00 | 0.00 | 70 | 1022.9 |
| 20260502002608 | 60 | 71 | 2.6 | 5.2 | 0.00 | 0.00 | 0.00 | 71 | 1022.9 |
| 20260502001603 | 60 | 57 | 4.3 | 7.0 | 0.00 | 0.00 | 0.00 | 71 | 1023.1 |
| 20260502000556 | 60 | 23 | 3.5 | 5.2 | 0.00 | 0.00 | 0.00 | 71 | 1023.1 |
| 20260501235549 | 60 | 63 | 2.6 | 6.1 | 0.00 | 0.00 | 0.00 | 71 | 1023.2 |
| 20260501234544 | 60 | 50 | 2.6 | 5.2 | 0.00 | 0.00 | 0.00 | 71 | 1023.4 |
| 20260501233539 | 60 | 63 | 3.5 | 6.1 | 0.00 | 0.00 | 0.00 | 72 | 1023.3 |
| 20260501232552 | 60 | 52 | 2.6 | 6.1 | 0.00 | 0.00 | 0.00 | 71 | 1023.4 |
| 20260501231527 | 60 | 68 | 2.6 | 7.0 | 0.00 | 0.00 | 0.00 | 72 | 1023.4 |
| 20260501230520 | 60 | 79 | 4.3 | 7.8 | 0.00 | 0.00 | 0.00 | 72 | 1023.4 |
| 20260501225614 | 60 | 70 | 3.5 | 7.0 | 0.00 | 0.00 | 0.00 | 71 | 1023.3 |
| 20260501224610 | 60 | 72 | 5.2 | 7.8 | 0.00 | 0.00 | 0.00 | 71 | 1023.1 |
| 20260501223626 | 60 | 47 | 5.2 | 9.6 | 0.00 | 0.00 | 0.00 | 71 | 1023.1 |
| 20260501222600 | 60 | 81 | 3.5 | 7.0 | 0.00 | 0.00 | 0.00 | 72 | 1023.2 |
| 20260501221553 | 60 | 59 | 5.2 | 9.6 | 0.00 | 0.00 | 0.00 | 73 | 1023.1 |
| 20260501220608 | 60 | 44 | 4.3 | 7.0 | 0.00 | 0.00 | 0.00 | 74 | 1023.1 |
| 20260501215537 | 60 | 63 | 2.6 | 6.1 | 0.00 | 0.00 | 0.00 | 76 | 1023.2 |
| 20260501214532 | 60 | 72 | 3.5 | 6.1 | 0.00 | 0.00 | 0.00 | 79 | 1023.2 |
| 20260501213526 | 60 | 60 | 1.7 | 3.5 | 0.00 | 0.00 | 0.00 | 81 | 1023.5 |
| 20260501212521 | 60 | 102 | 2.6 | 5.2 | 0.00 | 0.00 | 0.00 | 81 | 1023.2 |
| 20260501211617 | 60 | 91 | 2.6 | 6.1 | 0.00 | 0.00 | 0.00 | 80 | 1023.3 |
| 20260501210649 | 60 | 73 | 4.3 | 7.0 | 0.00 | 0.00 | 0.00 | 79 | 1023.2 |
| 20260501205601 | 60 | 90 | 3.5 | 7.8 | 0.00 | 0.00 | 0.00 | 78 | 1023.3 |
| 20260501204556 | 60 | 74 | 4.3 | 7.8 | 0.00 | 0.00 | 0.00 | 80 | 1023.2 |
| 20260501203550 | 60 | 108 | 2.6 | 6.1 | 0.00 | 0.00 | 0.00 | 82 | 1023.2 |
| 20260501202546 | 60 | 93 | 2.6 | 6.1 | 0.00 | 0.00 | 0.00 | 82 | 1023.2 |
| 20260501201540 | 60 | 102 | 2.6 | 7.0 | 0.00 | 0.00 | 0.00 | 83 | 1023.2 |
| 20260501200536 | 60 | 90 | 1.7 | 3.5 | 0.00 | 0.00 | 0.00 | 83 | 1023.0 |
| 20260501195529 | 60 | 122 | 1.7 | 3.5 | 0.00 | 0.00 | 0.00 | 83 | 1023.0 |